軌道要素
Epoch 2003 Jan. 1.0 TT = JDT 2452640.5
T 2003 Jan. 18.69985 TT MPC
q 2.0576082 (2000.0) P Q
z -0.0007969 Peri. 121.48391 -0.68610466 -0.71676778
+/-0.0000027 Node 14.16979 +0.36330016 -0.48585757
e 1.0016397 Incl. 30.57418 +0.63029627 -0.50018634
>From 588 observations 2001 Aug. 28-2002 Sept. 13, mean residual 0".55.
|